Location: Marsån
(66.4167°N, 22.2833°E)
Time: 11:35:11
(UTC+00:00)

Cosmos 1833 Rocket - Pass Details

Date: 24 February 2024
Orbit: 833 x 838 km, 71.0° (Epoch: 15 April)

Event Time Altitude Azimuth Distance (km) Brightness Sun altitude
Rises 20:02:09 0° 261° (W) 3,393 6.3 -26.8°
Reaches altitude 10° 20:04:38 10° 266° (W) 2,459 5.6 -26.9°
Maximum altitude 20:10:13 59° 346° (NNW) 970 3.1 -27.3°
Enters shadow 20:12:34 34° 50° (NE) 1,364 3.7 -27.5°
